Камери на живо
ЦПИ
02 9374270
ЦКИВП
02 9371284
ЦКИВП
02 9374762
Партньори:
системи за видеонаблюдение
telenor
telesys
УЧИЛИЩЕ ЗА ПИЛОТИ ОЛИМПИЯ ЕР
Еър Ситис ЕООД
Авиационен Център Долна Баня
Камери на живо - sub stream
METAR for:LBSF (Sofia Intl, SO, BG)
Text:LBSF 151130Z 29008KT 240V320 CAVOK 24/04 Q1014 NOSIG
Conditions at:1130 UTC 15 Jun 2024
Temperature: 24.0°C ( 75°F)
Dewpoint: 4.0°C ( 39°F) [RH = 27%]
Pressure (altimeter):29.94 inches Hg (1014.0 mb)
Winds:from the WNW (290 degrees) at 9 MPH (8 knots; 4.1 m/s)
Visibility:6 or more sm (10+ km)
Ceiling:ceiling and visibility are OK
Clouds:unknown

METAR for:LBPD (Plovdiv Arpt, PL, BG)
Text:LBPD 151130Z AUTO 31011KT 260V360 9999 NCD 28/04 Q1011 NOSIG
Conditions at:1130 UTC 15 Jun 2024
Temperature: 28.0°C ( 82°F)
Dewpoint: 4.0°C ( 39°F) [RH = 22%]
Pressure (altimeter):29.85 inches Hg (1011.0 mb)
Winds:from the NW (310 degrees) at 13 MPH (11 knots; 5.7 m/s)
Visibility:6 or more sm (10+ km)
Ceiling:at least 12,000 feet AGL
Clouds:sky clear below 12,000 feet AGL

METAR for:LBWN (Varna Intl, VA, BG)
Text:LBWN 151130Z 31010KT 260V350 9999 BKN044 26/14 Q1011 NOSIG
Conditions at:1130 UTC 15 Jun 2024
Temperature: 26.0°C ( 79°F)
Dewpoint: 14.0°C ( 57°F) [RH = 48%]
Pressure (altimeter):29.85 inches Hg (1011.0 mb)
Winds:from the NW (310 degrees) at 12 MPH (10 knots; 5.1 m/s)
Visibility:6 or more sm (10+ km)
Ceiling:4400 feet AGL
Clouds:broken clouds at 4400 feet AGL

METAR for:LBBG (Burgas Arpt, BU, BG)
Text:LBBG 151130Z AUTO 12013KT 9999 NSC 26/16 Q1011 NOSIG
Conditions at:1130 UTC 15 Jun 2024
Temperature: 26.0°C ( 79°F)
Dewpoint: 16.0°C ( 61°F) [RH = 54%]
Pressure (altimeter):29.85 inches Hg (1011.0 mb)
Winds:from the ESE (120 degrees) at 15 MPH (13 knots; 6.7 m/s)
Visibility:6 or more sm (10+ km)
Ceiling:at least 12,000 feet AGL
Clouds:sky clear below 12,000 feet AGL

METAR for:LBGO (Gorna Orechovista Arpt, LO, BG)
Text:LBGO 151130Z AUTO 25006KT 180V310 9999 FEW063/// 26/12 Q1012 NOSIG
Conditions at:1130 UTC 15 Jun 2024
Temperature: 26.0°C ( 79°F)
Dewpoint: 12.0°C ( 54°F) [RH = 42%]
Pressure (altimeter):29.88 inches Hg (1012.0 mb)
Winds:from the WSW (250 degrees) at 7 MPH (6 knots; 3.1 m/s)
Visibility:6 or more sm (10+ km)
Ceiling:at least 12,000 feet AGL
Clouds:few clouds at 6300 feet AGL

METAR for:LBPG (Graf Ignatievo(AB), PL, BG)
Text:LBPG 151100Z 26006KT 9999 SKC 29/06 Q1011
Conditions at:1100 UTC 15 Jun 2024
Temperature: 29.0°C ( 84°F)
Dewpoint: 6.0°C ( 43°F) [RH = 23%]
Pressure (altimeter):29.85 inches Hg (1011.0 mb)
Winds:from the W (260 degrees) at 7 MPH (6 knots; 3.1 m/s)
Visibility:6 or more sm (10+ km)
Ceiling:at least 12,000 feet AGL
Clouds:clear skies

METAR for:LBIA (Bezmer(AB), BU, BG)
Text:LBIA 151100Z 08004KT 9999 FEW060 SCT200 27/11 Q1012
Conditions at:1100 UTC 15 Jun 2024
Temperature: 27.0°C ( 81°F)
Dewpoint: 11.0°C ( 52°F) [RH = 37%]
Pressure (altimeter):29.88 inches Hg (1012.0 mb)
Winds:from the E (80 degrees) at 5 MPH (4 knots; 2.1 m/s)
Visibility:6 or more sm (10+ km)
Ceiling:at least 12,000 feet AGL
Clouds:few clouds at 6000 feet AGL, scattered clouds at 20000 feet AGL